Simultaneous Nadir Overpasses (SNOs) Predictions

Prediction of SNOs between METOP-B and NOAA-19 Satellite Orbit:

Table of predicted SNOs for the next 14.0 days since TLE Epoch: 11/4/2012
Index Date (METOP-B) Time (METOP-B) METOP-B Lat,Lon Date (NOAA-19) Time (NOAA-19) NOAA-19 Lat,Lon Distance(km) Time Diff (sec)
1 11/06/2012 02:04:15 73.72, 142.98 11/06/2012 02:03:07 73.75, 140.50 77.30 68
2 11/06/2012 02:55:08 -73.17, -50.96 11/06/2012 02:54:02 -73.16, -50.90 1.98 66
3 11/06/2012 03:45:48 73.15, 116.34 11/06/2012 03:45:00 73.16, 116.35 1.31 48
4 11/06/2012 04:36:30 -73.15, -76.33 11/06/2012 04:36:07 -73.16, -76.42 3.22 23
5 11/06/2012 05:27:10 73.14, 90.97 11/06/2012 05:27:04 73.12, 90.94 2.40 6
6 11/06/2012 06:17:53 -73.09,-101.82 11/06/2012 06:18:11 -73.12,-101.84 3.41 18
7 11/06/2012 07:08:33 73.07, 65.48 11/06/2012 07:09:08 73.07, 65.53 1.44 35
8 11/06/2012 07:59:15 -73.07,-127.19 11/06/2012 08:00:15 -73.07,-127.25 1.95 60
9 11/06/2012 08:49:58 72.90, 39.78 11/06/2012 08:51:11 72.97, 40.22 16.28 73
10 11/16/2012 01:06:50 -73.66, -22.78 11/16/2012 01:05:41 -73.68, -24.94 67.63 69
11 11/16/2012 01:57:39 73.17, 143.44 11/16/2012 01:56:29 73.15, 143.54 3.23 70
12 11/16/2012 02:48:22 -73.14, -49.28 11/16/2012 02:47:35 -73.14, -49.21 2.41 47
13 11/16/2012 03:39:01 73.15, 118.07 11/16/2012 03:38:34 73.16, 118.01 2.03 27
14 11/16/2012 04:29:44 -73.13, -74.66 11/16/2012 04:29:40 -73.14, -74.74 3.15 4
15 11/16/2012 05:20:24 73.08, 92.58 11/16/2012 05:20:38 73.11, 92.60 3.02
